Weather in Marivka

Ukraine / Dnipropetrovsk Region     48°20′18″N   35°42′34″E
temp.,
°C
wind,
m/s
gust,
m/s
humid.,
%
clouds,
%
prec.,
mm/h
press.,
hPa
HPBL,
m
23 april, fri
fri2300:00+8ssw48895 0.0 1021176
03:00+8ssw49905 0.3 1021184
06:00+7ssw499192 0.0 1021191
09:00+12ssw69656 0.0 1021609
12:00+16ssw894810 0.0 10191424
15:00+17ssw894244 0.0 10182042
18:00+14wsw61058100 0.1 10161382
21:00+12sw51166100 0.4 1017622
24 april, sat
sat2400:00+10wsw4986100 0.9 1016835
03:00+6nnw91191100 2.8 1016644
06:00+5wnw38905 0.5 1017451
09:00+9wnw68631 0.5 1018936
12:00+11wnw810415 0.1 10192278
15:00+12w71134100 0.1 10192884
18:00+9nw710527 0.0 10201613
21:00+6nw495335 0.0 1022294
25 april, sun
sun2500:00+4w35560 0.0 102374
03:00+3wnw33610 0.0 102331
06:00+3wsw33675 0.0 102337
09:00+8wsw34465 0.0 1022801
12:00+11sw443963 0.0 10212010
15:00+13wsw4537100 0.0 10192261
18:00+13sw3343100 0.0 10181712
21:00+8ssw3556100 0.0 101974
26 april, mon
mon2600:00+6ssw496792 0.0 1019177
03:00+5wsw346584 0.0 101870
06:00+5w237687 0.0 101863
09:00+6nw6589100 0.8 1018756
12:00+8wnw2474100 1.6 1019901
15:00+11wnw354672 1.6 10171864
18:00+11wnw444878 0.0 10171626
21:00+6n33543 0.0 101830
27 april, tue
tue2700:00+6s225493 0.0 101813
03:00+4s457952 0.0 101879
06:00+4s468697 0.0 1017104
09:00+10s5862100 0.0 1016697
12:00+9ssw71171100 1.4 10151255
15:00+9sw81485100 3.5 1013950
18:00+12w610635 0.3 10131316
21:00+5nw4108717 0.3 1016283